Location: Little Plains
(40.8507°N, 73.3657°W)
Time: 12:31:41
(UTC+00:00)

Daily predictions for brighter satellites

Satellite Brightness Start Highest point End
(mag) Time Altitude Azimuth Time Altitude Azimuth Time Altitude Azimuth
Cosmos 1939 Rocket 3.2 21:51:03 10° SSE 21:54:59 46° ENE 21:58:55 10° N
H-2A R/B 3.0 21:51:18 10° ESE 21:55:29 25° ENE 21:59:36 10° NNE
Cosmos 1656 3.7 21:51:30 10° NNW 21:57:04 82° ENE 22:02:41 10° SSE
Cosmos 1812 4.4 21:56:20 10° ESE 21:58:29 15° E 22:00:39 10° NE
FengYun 1-2 T 4.3 21:53:44 10° SSE 21:59:15 67° ENE 22:04:46 10° N
COSMO-SKYMED 1 4.1 21:58:33 10° NE 22:01:28 17° E 22:04:21 10° SE
USA 276 2.2 22:02:06 10° NW 22:05:10 54° NNE 22:08:14 10° ESE
Cosmos 1763 Rocket 3.5 22:00:42 10° SSW 22:05:45 89° WNW 22:10:53 10° NNE
Cosmos 2034 Rocket 4.1 22:02:01 10° S 22:08:11 83° W 22:14:22 10° N
Meteor PRIRODA 4.1 22:05:31 10° S 22:09:06 64° W 22:12:44 10° NNW
Cosmos 1697 Rocket 2.8 22:03:50 10° NNW 22:09:19 51° ENE 22:14:46 10° SE
Cosmos 841 Rocket 3.9 22:06:37 10° S 22:11:29 43° ESE 22:16:20 10° NNE
Cosmos 1980 Rocket 3.0 22:08:11 10° N 22:13:06 29° NE 22:17:59 10° ESE
Cosmos 2369 4.2 22:07:56 10° N 22:13:13 37° ENE 22:18:28 10° SE
Cosmos 1602 3.9 22:13:17 10° N 22:17:02 49° E 22:20:47 10° SSE
Cosmos 1937 Rocket 3.7 22:12:28 10° N 22:17:38 48° ENE 22:22:45 10° SE
Meteor 1-25 Rocket 4.1 22:14:37 10° N 22:20:12 74° E 22:25:48 10° SSE
Cosmos 1782 3.0 22:16:58 10° SSE 22:20:49 49° E 22:24:42 10° NNE
Okean O Rocket 2.8 22:17:34 10° ESE 22:20:59 22° ENE 22:24:26 10° NNE
NOAA 6 4.0 22:16:50 10° SSE 22:21:59 84° ENE 22:27:08 10° NNW
SL-16 R/B 4.0 22:21:03 10° NNE 22:22:49 11° NE 22:23:09 11° NE
Cosmos 2082 Rocket 2.5 22:18:51 10° S 22:24:18 50° ESE 22:29:46 10° NE
Cosmos 1151 Rocket 3.9 22:20:56 10° SSE 22:24:39 29° E 22:28:25 10° NNE
Cosmos 1743 Rocket 3.7 22:20:55 10° N 22:25:15 78° W 22:29:34 10° S
Cosmos 990 Rocket 4.2 22:20:40 10° NNW 22:25:52 75° WSW 22:30:59 10° SSE
Meteor 2-21 4.5 22:20:42 10° N 22:26:40 55° ENE 22:32:34 10° SSE
USA 267 4.0 22:20:47 10° NE 22:26:57 46° NNW 22:33:07 10° WSW
ISS -2.1 22:25:21 10° NNW 22:27:59 20° NNE 22:29:11 17° NE
Cosmos 1634 Rocket 4.0 22:23:22 10° S 22:29:36 68° E 22:35:55 10° NNE
CORIOLIS 4.1 22:24:20 10° SSE 22:29:43 87° ENE 22:35:10 10° NNW
CZ-4B DEB 4.1 22:25:29 10° SSE 22:30:59 77° ENE 22:36:30 10° N
Cosmos 372 Rocket 4.4 22:26:19 10° N 22:31:15 40° ENE 22:36:10 10° SE
Cosmos 1340 Rocket 4.2 22:30:45 10° NNW 22:34:37 43° W 22:38:29 10° SSW
CZ-2D R/B 3.2 22:31:54 10° SSE 22:35:41 63° ENE 22:39:28 10° N
Cosmos 1666 Rocket 4.1 22:32:34 10° N 22:36:40 35° ENE 22:40:42 10° SE
Cosmos 2278 4.3 22:32:27 10° N 22:37:34 33° ENE 22:42:39 10° ESE
Cosmos 1328 Rocket 4.3 22:35:44 10° SSE 22:39:37 30° E 22:42:12 17° NE
Cosmos 2026 Rocket 3.9 22:33:41 10° N 22:39:50 78° E 22:45:54 10° S
MOS 1-B Rocket 4.1 22:35:31 10° NNE 22:41:28 70° ESE 22:48:18 10° S
COSMOS 2406 3.5 22:36:54 10° SSW 22:42:38 70° WNW 22:48:22 10° NNE
Lacrosse 5 rocket 3.3 22:41:20 10° N 22:43:18 13° NNE 22:43:19 13° NNE
CZ-2C R/B 3.6 22:41:43 10° S 22:43:38 13° SSE 22:45:28 10° SE
USA 229 DEB 4.0 22:37:17 10° NW 22:44:44 85° WSW 22:52:37 10° SSE
USA 229 4.0 22:37:22 10° NW 22:44:50 86° WSW 22:52:42 10° SSE
ARGOS 3.4 22:41:26 10° SE 22:46:33 45° ENE 22:51:40 10° N
COSMOS 2455 2.9 22:41:45 10° SSW 22:47:45 88° WNW 22:53:26 12° NNE
Cosmos 1833 Rocket 3.6 22:42:43 10° SW 22:48:08 48° WNW 22:53:35 10° NNE
Cosmos 858 Rocket 4.4 22:44:22 10° NNW 22:49:41 85° ENE 22:54:57 10° SSE
SKYMED 2 3.6 22:45:29 10° NNE 22:49:47 58° E 22:54:03 10° S
Cosmos 1500 3.0 22:46:39 10° N 22:50:24 82° E 22:54:06 10° S
Meteor 2-14 Rocket 4.4 22:44:26 10° N 22:50:34 87° E 22:56:39 10° S
ATLAS CENTAUR R/B 3.8 22:41:16 10° WSW 22:51:20 48° NW 22:54:53 16° NNE
Landsat 5 3.8 22:50:05 24° NE 22:52:06 41° E 22:55:51 10° S
Meteor 2-6 Rocket 4.4 22:49:18 10° SSE 22:54:50 48° E 23:00:15 10° NNE
SL-08 RB Rocket 4.2 22:52:06 10° SE 22:56:19 36° ENE 23:00:32 10° N
PAYLOAD B 4.4 22:53:00 10° SSE 22:58:37 80° WSW 23:04:15 10° NNW
USA 234 3.3 22:52:20 10° SE 22:58:53 82° SW 23:05:28 10° NW
Cosmos 1570 Rocket 4.0 22:54:42 10° S 22:59:53 63° ESE 23:03:29 20° NNE
Cosmos 540 Rocket 4.3 22:57:09 10° SW 23:02:04 48° WNW 23:07:01 10° N
CZ-4B R/B 3.0 22:59:09 10° SSE 23:04:36 81° ENE 23:09:58 10° NNW
Sich 1 3.7 23:01:23 10° NNW 23:05:36 57° W 23:09:50 10° S
GEOS 3 Rocket 4.3 23:05:32 31° ENE 23:06:13 32° NE 23:10:47 10° NNW
Cosmos 1814 Rocket 3.9 23:01:44 10° SSW 23:06:59 85° ESE 23:10:55 18° NNE
Cosmos 44 Rocket 4.4 23:04:44 10° NNW 23:08:01 25° NNE 23:08:01 25° NNE
CZ-2C R/B 2.5 23:05:22 10° NNE 23:10:35 87° WNW 23:15:45 10° SSW
Cosmos 1818 4.3 23:06:15 10° NNW 23:11:07 32° NE 23:11:07 32° NE
GPS 2-04 Rocket1 3.9 23:07:42 10° WSW 23:11:31 37° S 23:12:58 27° SE
Meteor 2-8 Rocket 4.4 23:05:41 10° S 23:11:45 68° E 23:17:53 10° NNE
Meteor 2-21 Rocket 4.4 23:06:30 10° N 23:12:38 85° W 23:18:40 10° S
Meteor 1-10 Rocket 4.4 23:08:08 10° SSE 23:13:42 51° E 23:16:43 26° NNE
Cosmos 1900 4.2 23:09:23 10° SSW 23:14:10 64° ESE 23:15:36 43° NE
NOSS 2-2 (D) 4.4 23:08:52 10° NNW 23:14:24 81° NE 23:22:12 10° SE
deb Chang Zheng 4 3.6 23:12:37 10° S 23:16:55 80° WSW 23:21:15 10° NNW
CZ-4C R/B 3.9 23:18:26 33° SSE 23:18:26 33° SSE 23:20:30 10° S
Cosmos 1666 2.6 23:16:17 10° N 23:20:02 80° W 23:23:43 10° S
Cosmos 1515 Rocket 4.3 23:16:33 10° SSE 23:19:38 37° SE 23:19:38 37° SE
Feng Yun 1-1 Rocket 4.3 23:19:49 10° SSE 23:25:40 65° ENE 23:31:30 10° N
CZ-4C R/B 2.9 23:22:16 10° NNW 23:29:40 71° NE 23:36:22 18° SE
Cosmos 2360 Rocket 4.4 23:27:25 10° N 23:27:34 10° N 23:27:34 10° N
Cosmos 2208 Rocket 4.1 23:27:29 10° SSW 23:32:52 83° WNW 23:35:28 32° NNE
Cosmos 1812 4.3 23:30:22 10° SW 23:33:52 34° WNW 23:36:51 13° NNW
H-2A R/B 3.4 23:29:51 10° SSW 23:34:42 39° W 23:39:27 10° NNW
COSMO-SKYMED 1 3.8 23:34:00 12° N 23:37:47 40° WNW 23:41:50 10° SW
Spot 2 4.3 23:41:49 10° SSE 23:46:56 84° ENE 23:52:06 10° NNW
Cosmos 921 Rocket 3.6 23:44:13 10° SSW 23:47:24 51° SW 23:47:24 51° SW
Cosmos 1633 Rocket 4.2 23:45:13 10° NNW 23:49:21 42° W 23:53:29 10° SSW
Cosmos 2322 Rocket 3.9 23:45:35 10° N 23:47:27 20° N 23:47:27 20° N
